IRNSS-1I

Last updated on Nov. 12, 2019, 4:19 a.m. UTC

1 43286U 18035A   19315.02414043  .00000142  00000-0  00000+0 0  9993
2 43286  28.7332 113.1443 0020591 178.0761 182.4484  1.00276101  5907
UTC
Height (km)
Latitude
Longitude
Inclination
Orbital Period
UTC large
Height (km)
Speed (km/s)
/
Latitude / Longitude
Inclination (degrees)
Orbital Period (minutes)
Azimuth
Elevation
Range (km)
Doppler Factor
iOS Compass Heading
iOS Angle

Next 30 passes for location: Hong Kong

Rise time Rise Azimuth (degrees) Set time Set Azimuth (degrees) Duration Max altitude (degrees)

No matching passes for this satellites